Location: Holbach
(51.5399°N, 10.6036°E)
Time: 02:49:25
(UTC+00:00)

Cosmos 2150 Rocket - Pass Details

Date: 18 September 2020
Orbit: 748 x 808 km, 74.0° (Epoch: 22 October)

Event Time Altitude Azimuth Distance (km) Brightness Sun altitude
Rises 18:46:55 0° 179° (S) 3,264 7.0 -13.4°
Reaches altitude 10° 18:49:24 10° 172° (S) 2,349 6.2 -13.7°
Maximum altitude 18:54:22 40° 104° (ESE) 1,158 4.4 -14.5°
Drops below altitude 10° 18:59:26 10° 36° (NE) 2,394 6.4 -15.2°
Sets 19:01:58 0° 30° (NNE) 3,334 7.2 -15.6°
